Ft Lauderdale, FL

7:14 AM EDT on October 17, 2017 (GMT -0400)
Fort Lauderdale-Hollywood International

Weather History for KFLL - August, 2014

Change the Weather History Date:

Monday, August 11, 2014

  Actual Average Record
Temperature  
Mean Temperature 86 °F 85 °F  
Max Temperature 93 °F 91 °F 96 °F (1987)
Min Temperature 78 °F 79 °F 69 °F (1917)
Degree Days  
Heating Degree Days 0 0  
Month to date heating degree days 0 0  
Since 1 June heating degree days 0 0  
Since 1 July heating degree days 0 0  
Cooling Degree Days 21 20  
Month to date cooling degree days 220 220  
Year to date cooling degree days 2886 2779  
Since 1 June cooling degree days 1351 1361  
Growing Degree Days 35 (Base 50)    
Moisture  
Dew Point 72 °F    
Average Humidity 70    
Maximum Humidity 85    
Minimum Humidity 55    
Precipitation  
Precipitation 0.00 in 0.23 in 2.18 in (1917)
Month to date precipitation 2.39 2.42  
Year to date precipitation 40.81 36.05  
Snow  
Snow 0.00 in - - ()
Month to date snowfall 0.0  
Since 1 June snowfall 0.0  
Since 1 July snowfall 0.0  
Snow Depth 0.00 in    
Sea Level Pressure  
Sea Level Pressure 30.03 in    
Wind  
Wind Speed 5 mph (South)    
Max Wind Speed 21 mph    
Max Gust Speed 26 mph    
Visibility 10 miles    
Events Thunderstorm    
T = Trace of Precipitation, MM = Missing Value Source: NWS Daily Summary

Daily Weather History Graph

Daily Weather History Graph

Search for Another Location

Airport or City:

Trip Planner

Search our weather history database for the weather conditions in past years. The results will help you decide how hot, cold, wet, or windy it might be!

Date:

Astronomy

Aug. 11, 2014 Rise Set
Actual Time 6:51 AM EDT 7:59 PM EDT
Civil Twilight 6:27 AM EDT 8:24 PM EDT
Nautical Twilight 5:58 AM EDT 8:52 PM EDT
Astronomical Twilight 5:28 AM EDT 9:22 PM EDT
Moon 8:41 PM EDT (8/11) 7:43 AM EDT (8/11)
Length of Visible Light 13h 57m
Length of Day
13h 08m
Full, 99% of the Moon is Illuminated
Aug 11
Full
Aug 17
Last Quarter
Aug 25
New
Sep 2
First Quarter
Sep 8
Full

Hourly Weather History & Observations

Time (EDT) Temp. Heat Index Dew Point Humidity Pressure Visibility Wind Dir Wind Speed Gust Speed Precip Events Conditions
12:53 AM 82.0 °F 86.3 °F 71.1 °F 69% 30.04 in 10.0 mi SW 6.9 mph - N/A   Scattered Clouds
1:53 AM 79.0 °F - 71.1 °F 77% 30.04 in 10.0 mi NNW 3.5 mph - N/A   Partly Cloudy
2:53 AM 81.0 °F 85.2 °F 72.0 °F 74% 30.02 in 10.0 mi Calm Calm - N/A   Scattered Clouds
3:53 AM 79.0 °F - 72.0 °F 79% 30.01 in 10.0 mi Calm Calm - N/A   Partly Cloudy
4:53 AM 79.0 °F - 73.0 °F 82% 30.01 in 10.0 mi Calm Calm - N/A   Partly Cloudy
5:53 AM 79.0 °F - 73.0 °F 82% 30.01 in 10.0 mi Calm Calm - N/A   Clear
6:53 AM 79.0 °F - 73.0 °F 82% 30.02 in 10.0 mi Calm Calm - N/A   Partly Cloudy
7:53 AM 82.0 °F 88.6 °F 75.0 °F 79% 30.04 in 10.0 mi Calm Calm - N/A   Partly Cloudy
8:53 AM 86.0 °F 90.7 °F 70.0 °F 59% 30.05 in 10.0 mi Calm Calm - N/A   Partly Cloudy
9:53 AM 87.1 °F 93.6 °F 72.0 °F 61% 30.06 in 10.0 mi Calm Calm - N/A   Partly Cloudy
10:53 AM 90.0 °F 96.9 °F 72.0 °F 55% 30.08 in 10.0 mi SE 5.8 mph - N/A   Scattered Clouds
11:53 AM 90.0 °F 99.0 °F 73.9 °F 59% 30.07 in 10.0 mi South 5.8 mph - N/A   Scattered Clouds
12:53 PM 91.0 °F 100.4 °F 73.9 °F 57% 30.06 in 10.0 mi ESE 10.4 mph - N/A   Partly Cloudy
1:53 PM 90.0 °F 99.0 °F 73.9 °F 59% 30.04 in 10.0 mi SSE 11.5 mph - N/A   Scattered Clouds
2:21 PM 90.0 °F 99.0 °F 73.9 °F 59% 30.04 in 10.0 mi SE 12.7 mph 18.4 mph N/A Thunderstorm Thunderstorm
2:53 PM 84.9 °F 88.8 °F 69.1 °F 59% 30.03 in 10.0 mi WSW 11.5 mph - N/A Thunderstorm Thunderstorm
3:10 PM 87.1 °F 88.3 °F 64.0 °F 46% 30.02 in 10.0 mi SW 10.4 mph 20.7 mph N/A   Mostly Cloudy
3:53 PM 90.0 °F 97.9 °F 73.0 °F 57% 30.01 in 10.0 mi SSE 9.2 mph - N/A   Mostly Cloudy
4:53 PM 90.0 °F 99.0 °F 73.9 °F 59% 30.00 in 10.0 mi SSE 11.5 mph - N/A   Mostly Cloudy
5:53 PM 90.0 °F 97.9 °F 73.0 °F 57% 29.99 in 10.0 mi South 5.8 mph - N/A   Mostly Cloudy
6:53 PM 88.0 °F 95.6 °F 73.0 °F 61% 29.99 in 10.0 mi SE 13.8 mph - N/A   Scattered Clouds
7:53 PM 87.1 °F 93.6 °F 72.0 °F 61% 30.00 in 10.0 mi SSE 9.2 mph - N/A   Scattered Clouds
8:53 PM 87.1 °F 92.0 °F 70.0 °F 57% 30.03 in 10.0 mi South 6.9 mph - N/A   Mostly Cloudy
9:53 PM 87.1 °F 92.8 °F 71.1 °F 59% 30.03 in 10.0 mi Variable 3.5 mph - N/A   Scattered Clouds
10:53 PM 84.9 °F 90.1 °F 71.1 °F 63% 30.05 in 10.0 mi WSW 4.6 mph - N/A   Scattered Clouds
11:53 PM 84.9 °F 90.7 °F 72.0 °F 65% 30.04 in 10.0 mi Calm Calm - N/A   Partly Cloudy